Year,Month,Day,Hour,Minute,Value (Times are PST for temperature in C)
2017,06,15,00,00,13.20
2017,06,15,00,01,13.20
2017,06,15,00,02,13.20
2017,06,15,00,03,13.20
2017,06,15,00,04,13.20
2017,06,15,00,05,13.20
2017,06,15,00,06,13.20
2017,06,15,00,07,13.20
2017,06,15,00,08,13.20
2017,06,15,00,09,13.20
2017,06,15,00,10,13.20
2017,06,15,00,11,13.20
2017,06,15,00,12,13.20
2017,06,15,00,13,13.20
2017,06,15,00,14,13.20
2017,06,15,00,15,13.20
2017,06,15,00,16,13.10
2017,06,15,00,17,13.10
2017,06,15,00,18,13.10
2017,06,15,00,19,13.10
2017,06,15,00,20,13.10
2017,06,15,00,21,13.10
2017,06,15,00,22,13.00
2017,06,15,00,23,13.00
2017,06,15,00,24,13.00
2017,06,15,00,25,13.00
2017,06,15,00,26,12.90
2017,06,15,00,27,12.90
2017,06,15,00,28,12.90
2017,06,15,00,29,12.90
2017,06,15,00,30,12.80
2017,06,15,00,31,12.80
2017,06,15,00,32,12.80
2017,06,15,00,33,12.80
2017,06,15,00,34,12.80
2017,06,15,00,35,12.80
2017,06,15,00,36,12.80
2017,06,15,00,37,12.80
2017,06,15,00,38,12.80
2017,06,15,00,39,12.70
2017,06,15,00,40,12.70
2017,06,15,00,41,12.70
2017,06,15,00,42,12.70
2017,06,15,00,43,12.70
2017,06,15,00,44,12.70
2017,06,15,00,45,12.70
2017,06,15,00,46,12.60
2017,06,15,00,47,12.60
2017,06,15,00,48,12.60
2017,06,15,00,49,12.60
2017,06,15,00,50,12.60
2017,06,15,00,51,12.50
2017,06,15,00,52,12.50
2017,06,15,00,53,12.50
2017,06,15,00,54,12.50
2017,06,15,00,55,12.40
2017,06,15,00,56,12.40
2017,06,15,00,57,12.40
2017,06,15,00,58,12.40
2017,06,15,00,59,12.40
2017,06,15,01,00,12.40
2017,06,15,01,01,12.30
2017,06,15,01,02,12.30
2017,06,15,01,03,12.30
2017,06,15,01,04,12.30
2017,06,15,01,05,12.30
2017,06,15,01,06,12.30
2017,06,15,01,07,12.30
2017,06,15,01,08,12.20
2017,06,15,01,09,12.20
2017,06,15,01,10,12.20
2017,06,15,01,11,12.20
2017,06,15,01,12,12.20
2017,06,15,01,13,12.20
2017,06,15,01,14,12.20
2017,06,15,01,15,12.20
2017,06,15,01,16,12.20
2017,06,15,01,17,12.30
2017,06,15,01,18,12.30
2017,06,15,01,19,12.30
2017,06,15,01,20,12.30
2017,06,15,01,21,12.30
2017,06,15,01,22,12.30
2017,06,15,01,23,12.30
2017,06,15,01,24,12.30
2017,06,15,01,25,12.30
2017,06,15,01,26,12.30
2017,06,15,01,27,12.20
2017,06,15,01,28,12.20
2017,06,15,01,29,12.20
2017,06,15,01,30,12.20
2017,06,15,01,31,12.20
2017,06,15,01,32,12.20
2017,06,15,01,33,12.10
2017,06,15,01,34,12.10
2017,06,15,01,35,12.10
2017,06,15,01,36,12.10
2017,06,15,01,37,12.10
2017,06,15,01,38,12.10
2017,06,15,01,39,12.10
2017,06,15,01,40,12.10
2017,06,15,01,41,12.10
2017,06,15,01,42,12.10
2017,06,15,01,43,12.10
2017,06,15,01,44,12.10
2017,06,15,01,45,12.10
2017,06,15,01,46,12.10
2017,06,15,01,47,12.10
2017,06,15,01,48,12.10
2017,06,15,01,49,12.10
2017,06,15,01,50,12.10
2017,06,15,01,51,12.10
2017,06,15,01,52,12.20
2017,06,15,01,53,12.20
2017,06,15,01,54,12.20
2017,06,15,01,55,12.20
2017,06,15,01,56,12.20
2017,06,15,01,57,12.20
2017,06,15,01,58,12.20
2017,06,15,01,59,12.20
2017,06,15,02,00,12.20
2017,06,15,02,01,12.20
2017,06,15,02,02,12.20
2017,06,15,02,03,12.20
2017,06,15,02,04,12.30
2017,06,15,02,05,12.30
2017,06,15,02,06,12.30
2017,06,15,02,07,12.30
2017,06,15,02,08,12.30
2017,06,15,02,09,12.30
2017,06,15,02,10,12.30
2017,06,15,02,11,12.20
2017,06,15,02,12,12.20
2017,06,15,02,13,12.20
2017,06,15,02,14,12.20
2017,06,15,02,15,12.20
2017,06,15,02,16,12.20
2017,06,15,02,17,12.20
2017,06,15,02,18,12.20
2017,06,15,02,19,12.20
2017,06,15,02,20,12.20
2017,06,15,02,21,12.20
2017,06,15,02,22,12.20
2017,06,15,02,23,12.20
2017,06,15,02,24,12.20
2017,06,15,02,25,12.20
2017,06,15,02,26,12.20
2017,06,15,02,27,12.20
2017,06,15,02,28,12.30
2017,06,15,02,29,12.30
2017,06,15,02,30,12.30
2017,06,15,02,31,12.30
2017,06,15,02,32,12.30
2017,06,15,02,33,12.30
2017,06,15,02,34,12.30
2017,06,15,02,35,12.30
2017,06,15,02,36,12.30
2017,06,15,02,37,12.40
2017,06,15,02,38,12.40
2017,06,15,02,39,12.40
2017,06,15,02,40,12.50
2017,06,15,02,41,12.50
2017,06,15,02,42,12.50
2017,06,15,02,43,12.40
2017,06,15,02,44,12.40
2017,06,15,02,45,12.40
2017,06,15,02,46,12.30
2017,06,15,02,47,12.30
2017,06,15,02,48,12.30
2017,06,15,02,49,12.30
2017,06,15,02,50,12.30
2017,06,15,02,51,12.30
2017,06,15,02,52,12.30
2017,06,15,02,53,12.30
2017,06,15,02,54,12.30
2017,06,15,02,55,12.30
2017,06,15,02,56,12.30
2017,06,15,02,57,12.30
2017,06,15,02,58,12.30
2017,06,15,02,59,12.30
2017,06,15,03,00,12.30
2017,06,15,03,01,12.30
2017,06,15,03,02,12.30
2017,06,15,03,03,12.20
2017,06,15,03,04,12.20
2017,06,15,03,05,12.20
2017,06,15,03,06,12.20
2017,06,15,03,07,12.20
2017,06,15,03,08,12.20
2017,06,15,03,09,12.20
2017,06,15,03,10,12.20
2017,06,15,03,11,12.30
2017,06,15,03,12,12.30
2017,06,15,03,13,12.30
2017,06,15,03,14,12.30
2017,06,15,03,15,12.40
2017,06,15,03,16,12.40
2017,06,15,03,17,12.40
2017,06,15,03,18,12.40
2017,06,15,03,19,12.40
2017,06,15,03,20,12.40
2017,06,15,03,21,12.40
2017,06,15,03,22,12.40
2017,06,15,03,23,12.40
2017,06,15,03,24,12.40
2017,06,15,03,25,12.40
2017,06,15,03,26,12.40
2017,06,15,03,27,12.40
2017,06,15,03,28,12.40
2017,06,15,03,29,12.40
2017,06,15,03,30,12.40
2017,06,15,03,31,12.40
2017,06,15,03,32,12.40
2017,06,15,03,33,12.40
2017,06,15,03,34,12.40
2017,06,15,03,35,12.40
2017,06,15,03,36,12.40
2017,06,15,03,37,12.40
2017,06,15,03,38,12.40
2017,06,15,03,39,12.30
2017,06,15,03,40,12.30
2017,06,15,03,41,12.30
2017,06,15,03,42,12.20
2017,06,15,03,43,12.20
2017,06,15,03,44,12.20
2017,06,15,03,45,12.20
2017,06,15,03,46,12.10
2017,06,15,03,47,12.10
2017,06,15,03,48,12.10
2017,06,15,03,49,12.10
2017,06,15,03,50,12.10
2017,06,15,03,51,12.10
2017,06,15,03,52,12.00
2017,06,15,03,53,12.00
2017,06,15,03,54,12.00
2017,06,15,03,55,12.00
2017,06,15,03,56,11.90
2017,06,15,03,57,11.90
2017,06,15,03,58,11.90
2017,06,15,03,59,11.90
2017,06,15,04,00,11.90
2017,06,15,04,01,11.90
2017,06,15,04,02,11.90
2017,06,15,04,03,11.90
2017,06,15,04,04,11.90
2017,06,15,04,05,11.90
2017,06,15,04,06,11.90
2017,06,15,04,07,11.80
2017,06,15,04,08,11.80
2017,06,15,04,09,11.80
2017,06,15,04,10,11.80
2017,06,15,04,11,11.80
2017,06,15,04,12,11.80
2017,06,15,04,13,11.80
2017,06,15,04,14,11.80
2017,06,15,04,15,11.80
2017,06,15,04,16,11.80
2017,06,15,04,17,11.80
2017,06,15,04,18,11.80
2017,06,15,04,19,11.80
2017,06,15,04,20,11.80
2017,06,15,04,21,11.70
2017,06,15,04,22,11.70
2017,06,15,04,23,11.70
2017,06,15,04,24,11.70
2017,06,15,04,25,11.70
2017,06,15,04,26,11.70
2017,06,15,04,27,11.70
2017,06,15,04,28,11.70
2017,06,15,04,29,11.70
2017,06,15,04,30,11.70
2017,06,15,04,31,11.70
2017,06,15,04,32,11.70
2017,06,15,04,33,11.70
2017,06,15,04,34,11.70
2017,06,15,04,35,11.70
2017,06,15,04,36,11.70
2017,06,15,04,37,11.70
2017,06,15,04,38,11.70
2017,06,15,04,39,11.70
